GW3183 Weather Reports


Display with metric or nautical units.
time (UTC)temp
F
wind
direction
speed
MPH
gust
MPH
rain 1hr
in
rain 24hr
in
rain mn
in
humidity
%
barometer
mb
20260506121322 53 223 1.0 2.0 0.00 0.00 0.00 85 1011.8
20260506120819 53 189 2.0 5.0 0.00 0.00 0.00 85 1011.6
20260506120317 53 160 1.0 5.0 0.00 0.00 0.00 85 1011.8
20260506115814 53 176 1.0 3.0 0.00 0.00 0.00 84 1011.7
20260506115313 53 141 2.0 3.0 0.00 0.00 0.00 84 1011.5
20260506114810 54 167 1.0 3.0 0.00 0.00 0.00 83 1011.6
20260506114308 54 163 1.0 3.0 0.00 0.00 0.00 81 1011.7
20260506113806 54 162 1.0 2.0 0.00 0.00 0.00 81 1011.4
20260506113303 54 142 2.0 3.0 0.00 0.00 0.00 80 1011.3
20260506112759 54 201 2.0 3.0 0.00 0.00 0.00 80 1011.0
20260506112257 54 181 1.0 2.0 0.00 0.00 0.00 79 1011.1
20260506111754 55 184 1.0 5.0 0.00 0.00 0.00 79 1010.7
20260506111252 55 116 1.0 3.0 0.00 0.00 0.00 78 1010.7
20260506110749 55 228 2.0 3.0 0.00 0.00 0.00 78 1010.6
20260506110247 55 169 1.0 5.0 0.00 0.00 0.00 78 1010.5
20260506105743 55 172 2.0 3.0 0.00 0.00 0.00 77 1010.5
20260506105240 55 287 2.0 2.0 0.00 0.00 0.00 78 1010.5
20260506104738 55 192 1.0 2.0 0.00 0.00 0.00 78 1010.5
20260506104235 56 168 0.0 2.0 0.00 0.00 0.00 77 1010.1
20260506103732 56 170 1.0 3.0 0.00 0.00 0.00 77 1010.3
20260506103229 56 166 0.0 1.0 0.00 0.00 0.00 77 1010.3
20260506102727 56 165 1.0 6.0 0.00 0.00 0.00 77 1010.0
20260506102225 56 109 1.0 2.0 0.00 0.00 0.00 77 1010.0
20260506101721 56 199 1.0 5.0 0.00 0.00 0.00 77 1009.8
20260506101218 56 270 3.0 6.0 0.00 0.00 0.00 78 1009.8
20260506100716 57 204 1.0 6.0 0.00 0.00 0.00 78 1009.4
20260506100214 57 22 1.0 3.0 0.00 0.00 0.00 78 1009.5
20260506095712 57 31 1.0 2.0 0.00 0.00 0.00 77 1009.7
20260506095209 57 66 1.0 2.0 0.00 0.00 0.00 77 1009.7
20260506094706 57 34 1.0 2.0 0.00 0.00 0.00 77 1009.4
20260506094204 57 114 1.0 2.0 0.00 0.00 0.00 78 1009.6
20260506093703 57 127 1.0 3.0 0.00 0.00 0.00 78 1009.3
20260506093159 57 144 1.0 5.0 0.00 0.00 0.00 78 1009.4
20260506092656 57 165 0.0 2.0 0.00 0.00 0.00 78 1009.2
20260506092154 57 33 1.0 2.0 0.00 0.00 0.00 78 1009.0
20260506091652 57 173 0.0 2.0 0.00 0.00 0.00 78 1009.3
20260506091149 57 221 2.0 2.0 0.00 0.00 0.00 78 1009.3
20260506090647 57 144 1.0 5.0 0.00 0.00 0.00 77 1009.2
20260506090143 57 153 0.0 2.0 0.00 0.00 0.00 77 1009.1
20260506085640 57 180 1.0 2.0 0.00 0.00 0.00 78 1009.2
20260506085136 57 179 0.0 3.0 0.00 0.00 0.00 78 1009.0
20260506084633 57 101 0.0 1.0 0.00 0.00 0.00 78 1008.8
20260506084130 58 181 1.0 2.0 0.00 0.00 0.00 79 1008.8
20260506083627 58 264 2.0 5.0 0.00 0.00 0.00 79 1008.9
20260506083124 58 134 0.0 2.0 0.00 0.00 0.00 79 1008.8
20260506082621 58 145 1.0 2.0 0.00 0.00 0.00 79 1008.8
20260506082116 58 142 1.0 2.0 0.00 0.00 0.00 79 1008.7
20260506081615 58 200 2.0 2.0 0.00 0.00 0.00 79 1008.7
20260506081112 58 194 0.0 2.0 0.00 0.00 0.00 79 1009.0
20260506080610 58 214 1.0 3.0 0.00 0.00 0.00 79 1008.9
20260506080106 58 174 1.0 3.0 0.00 0.00 0.00 79 1009.1
20260506073050 59 115 1.0 2.0 0.00 0.00 0.00 78 1008.5
20260506072547 59 167 1.0 1.0 0.00 0.00 0.00 79 1008.2
20260506072045 59 299 1.0 5.0 0.00 0.00 0.00 79 1008.1
20260506071542 59 188 0.0 1.0 0.00 0.00 0.00 80 1008.1
20260506071039 59 158 2.0 5.0 0.00 0.00 0.00 79 1008.1
20260506070536 59 3 1.0 2.0 0.00 0.00 0.00 79 1008.2
20260506062514 59 219 2.0 2.0 0.00 0.00 0.00 80 1008.6
20260506062010 59 163 0.0 3.0 0.00 0.00 0.00 80 1008.7
20260506061506 60 143 1.0 2.0 0.00 0.00 0.00 79 1008.1
20260506061004 60 144 2.0 2.0 0.00 0.00 0.00 80 1008.3
20260506060502 60 210 1.0 2.0 0.00 0.00 0.00 82 1008.5
20260506050931 60 169 0.0 3.0 0.00 0.00 0.00 81 1008.6
20260506050429 61 70 3.0 5.0 0.00 0.00 0.00 82 1008.6
20260506044919 61 187 1.0 3.0 0.00 0.00 0.00 82 1008.4
20260506044417 61 101 0.0 2.0 0.00 0.00 0.00 81 1008.4
20260506043914 61 139 1.0 3.0 0.00 0.00 0.00 81 1008.1
20260506043411 61 96 1.0 5.0 0.00 0.00 0.00 81 1008.5
20260506042909 61 162 0.0 3.0 0.00 0.00 0.00 81 1008.4
20260506042408 61 160 1.0 6.0 0.00 0.00 0.00 81 1008.3
20260506041906 62 167 2.0 5.0 0.00 0.00 0.00 81 1008.4
20260506041403 62 188 1.0 5.0 0.00 0.00 0.00 81 1008.6
20260506040900 62 218 3.0 6.0 0.00 0.00 0.00 80 1008.3
20260506040358 62 295 4.0 6.0 0.00 0.00 0.00 80 1008.3
20260506035854 63 160 0.0 2.0 0.00 0.00 0.00 80 1008.2
20260506035351 63 114 0.0 3.0 0.00 0.00 0.00 80 1008.3
20260506034848 63 94 3.0 5.0 0.00 0.00 0.00 79 1008.1
20260506034345 63 174 2.0 7.0 0.00 0.00 0.00 80 1008.1
20260506033842 64 190 2.0 3.0 0.00 0.00 0.00 80 1007.8
20260506033339 64 170 1.0 3.0 0.00 0.00 0.00 80 1007.5
20260506032836 63 170 1.0 2.0 0.00 0.00 0.00 80 1007.5
20260506032333 64 253 1.0 6.0 0.00 0.00 0.00 79 1007.4
20260506031830 64 65 3.0 6.0 0.00 0.00 0.00 78 1007.2
20260506031327 65 134 2.0 5.0 0.00 0.00 0.00 78 1007.2
20260506030825 65 171 1.0 3.0 0.00 0.00 0.00 79 1007.2
20260506030323 65 175 0.0 2.0 0.00 0.00 0.00 78 1007.3
20260506025819 65 167 1.0 2.0 0.00 0.00 0.00 79 1007.2
20260506025315 66 162 1.0 5.0 0.00 0.00 0.00 78 1007.0
20260506024813 66 178 1.0 3.0 0.00 0.00 0.00 77 1006.8
20260506024309 67 333 2.0 7.0 0.00 0.00 0.00 77 1006.8
20260506023805 67 241 1.0 3.0 0.00 0.00 0.00 76 1006.6
20260506023303 67 170 2.0 2.0 0.00 0.00 0.00 76 1006.6
20260506022759 68 240 2.0 6.0 0.00 0.00 0.00 75 1006.5
20260506022257 68 252 1.0 6.0 0.00 0.00 0.00 75 1006.5
20260506021755 68 212 1.0 3.0 0.00 0.00 0.00 75 1006.4
20260506021252 68 176 0.0 2.0 0.00 0.00 0.00 75 1006.2
20260506020748 68 196 1.0 5.0 0.00 0.00 0.00 75 1006.0
20260506020247 68 185 1.0 2.0 0.00 0.00 0.00 74 1005.8
20260506015744 68 221 1.0 1.0 0.00 0.00 0.00 75 1006.0
20260506015241 68 178 0.0 5.0 0.00 0.00 0.00 75 1005.7
20260506014738 68 193 2.0 5.0 0.00 0.00 0.00 75 1005.5
20260506014234 68 102 0.0 2.0 0.00 0.00 0.00 74 1005.7
20260506013732 68 167 1.0 5.0 0.00 0.00 0.00 74 1005.5
20260506013229 68 162 1.0 3.0 0.00 0.00 0.00 74 1005.5
20260506012725 69 241 1.0 3.0 0.00 0.00 0.00 74 1005.3
20260506012222 69 165 0.0 1.0 0.00 0.00 0.00 73 1005.2
20260506011719 69 161 0.0 2.0 0.00 0.00 0.00 73 1004.7
20260506011215 69 188 1.0 3.0 0.00 0.00 0.00 72 1004.9
20260506010714 70 183 2.0 2.0 0.00 0.00 0.00 72 1004.8
20260506010211 70 337 2.0 5.0 0.00 0.00 0.00 72 1004.7
20260506005708 71 8 2.0 3.0 0.00 0.00 0.00 72 1004.5
20260506005205 71 124 1.0 2.0 0.00 0.00 0.00 71 1004.4
20260506004701 71 354 2.0 2.0 0.00 0.00 0.00 71 1004.5
20260506004159 71 167 3.0 3.0 0.00 0.00 0.00 71 1004.3
20260506003654 72 290 2.0 3.0 0.00 0.00 0.00 71 1004.3
20260506003151 72 55 2.0 3.0 0.00 0.00 0.00 71 1003.6
20260506002647 73 148 2.0 6.0 0.00 0.00 0.00 70 1004.1
20260506002143 73 142 1.0 2.0 0.00 0.00 0.00 70 1003.9
20260506001638 74 156 1.0 3.0 0.00 0.00 0.00 70 1003.9
20260506001137 74 168 1.0 3.0 0.00 0.00 0.00 68 1003.7
20260506000633 75 179 1.0 5.0 0.00 0.00 0.00 67 1003.8
20260506000131 75 276 1.0 2.0 0.00 0.00 0.00 67 1003.7
20260505235629 75 276 2.0 5.0 0.00 0.00 0.00 67 1003.7
20260505235126 76 189 2.0 3.0 0.00 0.00 0.00 66 1003.6
20260505234622 77 206 2.0 6.0 0.00 0.00 0.00 65 1003.6
20260505234119 77 145 2.0 6.0 0.00 0.00 0.00 66 1003.7
20260505233617 78 203 2.0 3.0 0.00 0.00 0.00 64 1003.6
20260505233114 78 183 2.0 3.0 0.00 0.00 0.00 63 1003.5
20260505232612 78 247 0.0 6.0 0.00 0.00 0.00 63 1003.4
20260505232109 79 161 0.0 2.0 0.00 0.00 0.00 63 1003.2
20260505231606 79 193 1.0 6.0 0.00 0.00 0.00 62 1003.5
20260505231104 80 175 3.0 8.0 0.00 0.00 0.00 61 1003.3
20260505230602 81 291 1.0 3.0 0.00 0.00 0.00 61 1003.3
20260505230058 81 202 0.0 1.0 0.00 0.00 0.00 60 1003.1
20260505225555 82 177 2.0 3.0 0.00 0.00 0.00 59 1003.1
20260505225050 82 180 0.0 6.0 0.00 0.00 0.00 58 1003.2
20260505224548 83 236 3.0 6.0 0.00 0.00 0.00 57 1003.0
20260505224045 83 204 0.0 2.0 0.00 0.00 0.00 57 1002.7
20260505223542 84 192 2.0 6.0 0.00 0.00 0.00 57 1002.7
20260505223038 84 238 1.0 8.0 0.00 0.00 0.00 57 1002.7
20260505222534 85 149 4.0 7.0 0.00 0.00 0.00 56 1002.7
20260505222031 86 304 4.0 6.0 0.00 0.00 0.00 54 1002.4
20260505221528 86 184 4.0 7.0 0.00 0.00 0.00 54 1002.4
20260505221024 87 198 2.0 5.0 0.00 0.00 0.00 54 1002.1
20260505220522 87 196 1.0 3.0 0.00 0.00 0.00 54 1002.3
20260505220020 88 256 1.0 5.0 0.00 0.00 0.00 50 1002.4
20260505215518 88 189 1.0 2.0 0.00 0.00 0.00 48 1002.3
20260505215015 88 158 0.0 5.0 0.00 0.00 0.00 48 1002.0
20260505214513 88 224 2.0 6.0 0.00 0.00 0.00 46 1002.4
20260505214009 89 199 1.0 5.0 0.00 0.00 0.00 45 1002.6
20260505213507 91 202 1.0 5.0 0.00 0.00 0.00 44 1002.3
20260505213004 93 221 4.0 7.0 0.00 0.00 0.00 42 1002.1
20260505212500 91 194 1.0 3.0 0.00 0.00 0.00 45 1002.3
20260505211957 91 284 2.0 6.0 0.00 0.00 0.00 44 1002.0
20260505211454 92 189 0.0 5.0 0.00 0.00 0.00 44 1002.4
20260505210950 93 310 3.0 6.0 0.00 0.00 0.00 44 1002.3
20260505210448 95 198 1.0 7.0 0.00 0.00 0.00 44 1002.4
20260505205944 96 212 3.0 5.0 0.00 0.00 0.00 47 1002.3
20260505205443 96 258 3.0 5.0 0.00 0.00 0.00 48 1002.1
20260505204939 97 276 1.0 5.0 0.00 0.00 0.00 46 1002.5
20260505204437 96 229 3.0 6.0 0.00 0.00 0.00 46 1002.5
20260505203934 95 273 1.0 5.0 0.00 0.00 0.00 47 1002.6
20260505203431 95 235 3.0 7.0 0.00 0.00 0.00 47 1002.5
20260505202927 95 280 2.0 7.0 0.00 0.00 0.00 48 1002.8
20260505202424 95 204 2.0 5.0 0.00 0.00 0.00 49 1002.5
20260505201920 95 335 2.0 5.0 0.00 0.00 0.00 47 1002.5
20260505201417 94 222 2.0 5.0 0.00 0.00 0.00 48 1002.6
20260505200915 95 259 2.0 5.0 0.00 0.00 0.00 50 1002.9
20260505200412 95 311 3.0 6.0 0.00 0.00 0.00 49 1003.0
20260505195908 94 282 3.0 7.0 0.00 0.00 0.00 49 1002.7
20260505195405 95 255 2.0 8.0 0.00 0.00 0.00 52 1002.8
20260505194902 94 272 4.0 6.0 0.00 0.00 0.00 51 1002.9
20260505194400 93 257 5.0 6.0 0.00 0.00 0.00 53 1002.8
20260505193855 92 256 3.0 5.0 0.00 0.00 0.00 54 1002.9
20260505193353 93 241 3.0 7.0 0.00 0.00 0.00 53 1003.1
20260505192850 93 263 3.0 7.0 0.00 0.00 0.00 53 1002.8
20260505192348 92 206 6.0 9.0 0.00 0.00 0.00 53 1003.0
20260505191845 92 228 2.0 5.0 0.00 0.00 0.00 57 1002.9
20260505191344 91 283 2.0 6.0 0.00 0.00 0.00 55 1002.6
20260505190840 92 214 3.0 5.0 0.00 0.00 0.00 57 1002.7
20260505190336 92 199 3.0 7.0 0.00 0.00 0.00 56 1003.0
20260505185832 91 244 2.0 3.0 0.00 0.00 0.00 58 1002.7
20260505185328 90 213 2.0 2.0 0.00 0.00 0.00 62 1002.8
20260505184825 91 306 3.0 7.0 0.00 0.00 0.00 57 1002.7
20260505184322 90 236 3.0 5.0 0.00 0.00 0.00 58 1002.9
20260505183819 88 278 3.0 5.0 0.00 0.00 0.00 61 1002.9
20260505183316 88 268 3.0 5.0 0.00 0.00 0.00 61 1002.8
20260505182812 88 241 1.0 6.0 0.00 0.00 0.00 61 1003.0
20260505182309 87 228 1.0 3.0 0.00 0.00 0.00 64 1003.1
20260505181806 87 158 3.0 7.0 0.00 0.00 0.00 64 1003.0
20260505181303 87 263 1.0 8.0 0.00 0.00 0.00 64 1002.9
20260505180800 87 84 3.0 5.0 0.00 0.00 0.00 63 1003.0
20260505180256 87 326 2.0 7.0 0.00 0.00 0.00 62 1003.1
20260505175753 87 260 2.0 3.0 0.00 0.00 0.00 62 1003.2
20260505175249 88 277 3.0 5.0 0.00 0.00 0.00 61 1003.2
20260505174746 88 286 3.0 6.0 0.00 0.00 0.00 63 1003.2
20260505174243 87 231 0.0 3.0 0.00 0.00 0.00 64 1002.9
20260505173739 87 240 2.0 6.0 0.00 0.00 0.00 64 1003.0
20260505173236 86 312 3.0 5.0 0.00 0.00 0.00 63 1002.7
20260505172733 86 249 3.0 5.0 0.00 0.00 0.00 64 1002.8
20260505172230 86 270 3.0 5.0 0.00 0.00 0.00 64 1002.7
20260505171729 86 243 4.0 6.0 0.00 0.00 0.00 63 1002.9
20260505171227 86 243 1.0 6.0 0.00 0.00 0.00 65 1003.0
20260505170723 86 22 5.0 8.0 0.00 0.00 0.00 64 1003.1
20260505170220 85 235 3.0 6.0 0.00 0.00 0.00 65 1003.2
20260505165716 85 200 3.0 6.0 0.00 0.00 0.00 64 1003.3
20260505165212 85 235 3.0 7.0 0.00 0.00 0.00 65 1003.2
20260505164707 84 294 1.0 5.0 0.00 0.00 0.00 68 1002.9
20260505164205 83 227 3.0 8.0 0.00 0.00 0.00 70 1003.1
20260505163703 83 211 1.0 5.0 0.00 0.00 0.00 69 1003.0
20260505163201 83 238 3.0 5.0 0.00 0.00 0.00 68 1003.0
20260505162658 83 216 1.0 7.0 0.00 0.00 0.00 69 1002.9
20260505162155 82 201 2.0 5.0 0.00 0.00 0.00 70 1003.0
20260505161652 82 38 2.0 8.0 0.00 0.00 0.00 69 1003.2
20260505161149 83 308 3.0 5.0 0.00 0.00 0.00 70 1002.9
20260505160647 82 277 1.0 5.0 0.00 0.00 0.00 71 1002.7
20260505160144 82 269 4.0 6.0 0.00 0.00 0.00 71 1003.0
20260505153124 79 221 2.0 3.0 0.00 0.00 0.00 75 1002.9
20260505152620 78 270 2.0 3.0 0.00 0.00 0.00 76 1002.6
20260505152116 78 248 2.0 7.0 0.00 0.00 0.00 76 1002.7
20260505151612 78 160 3.0 3.0 0.00 0.00 0.00 76 1002.8
20260505151109 78 245 3.0 8.0 0.00 0.00 0.00 76 1002.6
20260505150605 78 255 3.0 7.0 0.00 0.00 0.00 76 1002.7
20260505140531 75 263 3.0 5.0 0.00 0.00 0.00 82 1002.6
20260505124944 71 290 2.0 3.0 0.00 0.00 0.00 88 1002.5
20260505124441 71 336 3.0 6.0 0.00 0.00 0.00 89 1002.5
20260505123937 71 211 0.0 5.0 0.00 0.00 0.00 89 1002.4
20260505123434 71 215 3.0 3.0 0.00 0.00 0.00 90 1002.1
20260505122929 70 209 2.0 5.0 0.00 0.00 0.00 90 1001.9
20260505122427 70 268 2.0 5.0 0.00 0.00 0.00 90 1002.0
20260505121924 70 292 3.0 5.0 0.00 0.00 0.00 91 1001.9